This demonstration page uses our WeatherBlox Daily Observations layout. Learn more.

Left ArrowRight Arrow

39.51506, -84.39828

Hourly Observations for November 8, 2020

Temp ( °F °C ) Dew Point ( °F °C ) Humidity (%) Winds ( mph kmh ) Pressure ( in mb ) Visibility ( mi km ) Precip ( " mm )
12:15 am 00:15 Clear 43 6 42 5.4 96 96 Calm 30.29 1026 10 16.0934 0 0
12:35 am 00:35 Clear 43 6 42 5.6 97 97 Calm 30.29 1026 10 16.0934 0 0
12:55 am 00:55 Clear 42 5.6 42 5.3 98 98 Calm 30.29 1026 10 16.0934 0 0
1:15 am 01:15 Clear 43 5.9 42 5.6 98 98 Calm 30.29 1026 10 16.0934 0 0
1:35 am 01:35 Clear 43 6.3 43 5.9 97 97 Calm 30.29 1026 7 11.26538 0 0
1:55 am 01:55 Clear 43 6.1 42 5.6 97 97 Calm 30.29 1026 10 16.0934 0 0
2:15 am 02:15 Clear 43 6 42 5.6 97 97 Calm 30.3 1026 10 16.0934 0 0
2:35 am 02:35 Clear 42 5.8 42 5.4 97 97 Calm 30.3 1026 10 16.0934 0 0
2:55 am 02:55 Clear 43 6 42 5.6 97 97 Calm 30.3 1026 10 16.0934 0 0
3:15 am 03:15 Clear 43 6 42 5.6 97 97 Calm 30.31 1026 10 16.0934 0 0
3:35 am 03:35 Clear 43 6 42 5.8 99 99 Calm 30.31 1026 10 16.0934 0 0
3:55 am 03:55 Clear 42 5.8 42 5.6 99 99 Calm 30.31 1026 10 16.0934 0 0
4:15 am 04:15 Clear 42 5.8 42 5.7 99 99 Calm 30.31 1026 7 11.26538 0 0
4:35 am 04:35 Clear 42 5.5 42 5.4 99 99 Calm 30.31 1026 10 16.0934 0 0
4:55 am 04:55 Clear 43 6.1 42 5.8 98 98 Calm 30.31 1026 10 16.0934 0 0
5:15 am 05:15 Clear 43 6.2 42 5.6 96 96 Calm 30.32 1027 10 16.0934 0 0
5:35 am 05:35 Clear 42 5.8 42 5.6 99 99 Calm 30.32 1027 10 16.0934 0 0
5:55 am 05:55 Clear 42 5.3 41 5.1 99 99 Calm 30.33 1027 10 16.0934 0 0
6:15 am 06:15 Clear 42 5.6 42 5.5 99 99 Calm 30.33 1027 10 16.0934 0 0
6:35 am 06:35 Clear 42 5.5 42 5.4 99 99 Calm 30.33 1027 7 11.26538 0 0
6:55 am 06:55 Clear 42 5.7 42 5.5 99 99 Calm 30.33 1027 10 16.0934 0 0
7:15 am 07:15 Sunny with Mist and Fog 43 5.9 42 5.8 99 99 Calm 30.34 1027 7 11.26538 0 0
7:35 am 07:35 Sunny 43 6 42 5.8 99 99 Calm 30.34 1027 10 16.0934 0 0
7:55 am 07:55 Sunny with Mist and Fog 44 6.7 44 6.7 100 100 Calm 30.35 1028 7 11.26538 0 0
8:15 am 08:15 Mostly Cloudy 46 8 45 7.4 96 96 Calm 30.35 1028 10 16.0934 0 0
8:35 am 08:35 Sunny 48 9.1 46 7.6 90 90 Calm 30.35 1028 10 16.0934 0 0
8:55 am 08:55 Sunny 51 10.5 47 8.3 86 86 Calm 30.36 1028 10 16.0934 0 0
9:15 am 09:15 Sunny 54 12 48 9 82 82 Calm 30.35 1028 10 16.0934 0 0
9:35 am 09:35 Sunny 57 13.8 48 8.9 73 73 Calm 30.35 1028 10 16.0934 0 0
9:55 am 09:55 Sunny 59 15.1 47 8.6 65 65 Calm 30.35 1028 10 16.0934 0 0
10:15 am 10:15 Sunny 62 16.5 48 8.8 61 61 Calm 30.34 1028 10 16.0934 0 0
10:35 am 10:35 Sunny 65 18.3 49 9.4 56 56 Calm 30.33 1027 10 16.0934 0 0
10:55 am 10:55 Sunny 68 20.2 49 9.7 51 51 Calm 30.33 1027 10 16.0934 0 0
11:15 am 11:15 Sunny 72 22.3 47 8.3 41 41 Calm 30.32 1027 10 16.0934 0 0
11:35 am 11:35 Sunny 74 23.4 45 7.3 36 36 SSW 7 11 30.32 1027 10 16.0934 0 0
11:55 am 11:55 Sunny 75 23.8 46 8 36 36 SW 3 6 30.31 1026 10 16.0934 0 0
12:15 pm 12:15 Sunny 76 24.6 47 8.3 35 35 SSW 6 9 30.3 1026 10 16.0934 0 0
12:35 pm 12:35 Sunny 77 25 48 8.7 36 36 W 3 6 30.29 1026 10 16.0934 0 0
12:55 pm 12:55 Sunny 77 24.9 48 8.8 36 36 WSW 3 6 30.28 1025 10 16.0934 0 0
1:15 pm 13:15 Sunny 78 25.3 48 8.7 35 35 Calm 30.27 1025 10 16.0934 0 0
1:35 pm 13:35 Sunny 79 25.9 47 8.3 33 33 SSW 5 7 30.27 1025 10 16.0934 0 0
1:55 pm 13:55 Sunny 79 26.3 48 8.7 33 33 SSW 7 11 30.26 1025 10 16.0934 0 0
2:15 pm 14:15 Sunny 79 26.3 47 8.6 33 33 SSW 8 13 30.26 1025 10 16.0934 0 0
2:35 pm 14:35 Sunny 80 26.5 47 8.5 32 32 WSW 3 6 30.25 1024 10 16.0934 0 0
2:55 pm 14:55 Sunny 80 26.4 47 8.3 32 32 WSW 6 9 30.25 1024 10 16.0934 0 0
3:15 pm 15:15 Sunny 79 26.2 48 8.9 34 34 S 5 7 30.25 1024 10 16.0934 0 0
3:35 pm 15:35 Sunny 79 26.2 48 9.1 34 34 S 8 13 30.25 1024 10 16.0934 0 0
3:55 pm 15:55 Sunny 79 26.2 48 8.9 34 34 S 7 11 30.24 1024 10 16.0934 0 0
4:15 pm 16:15 Sunny 78 25.8 49 9.4 36 36 S 7 11 30.24 1024 10 16.0934 0 0
4:35 pm 16:35 Sunny 78 25.3 49 9.3 36 36 S 6 9 30.24 1024 10 16.0934 0 0
4:55 pm 16:55 Sunny 77 24.9 48 9 37 37 S 5 7 30.24 1024 10 16.0934 0 0
5:15 pm 17:15 Sunny 76 24.5 47 8.3 36 36 SSE 3 6 30.24 1024 10 16.0934 0 0
5:35 pm 17:35 Clear 75 23.8 47 8.2 37 37 Calm 30.25 1024 10 16.0934 0 0
5:55 pm 17:55 Clear 67 19.7 48 8.7 49 49 Calm 30.26 1025 10 16.0934 0 0
6:15 pm 18:15 Clear 63 17.3 50 10.1 63 63 Calm 30.26 1025 10 16.0934 0 0
6:35 pm 18:35 Clear 60 15.7 50 10.1 70 70 Calm 30.26 1025 7 11.26538 0 0
6:55 pm 18:55 Clear 60 15.4 50 10.1 71 71 Calm 30.27 1025 10 16.0934 0 0
7:15 pm 19:15 Clear 57 14 50 10 77 77 Calm 30.27 1025 10 16.0934 0 0
7:35 pm 19:35 Clear 57 13.9 50 9.9 77 77 Calm 30.27 1025 10 16.0934 0 0
7:55 pm 19:55 Clear 56 13.3 51 10.5 83 83 Calm 30.27 1025 10 16.0934 0 0
8:15 pm 20:15 Clear 55 12.7 50 9.9 83 83 Calm 30.27 1025 10 16.0934 0 0
8:35 pm 20:35 Clear 53 11.7 49 9.7 88 88 Calm 30.27 1025 10 16.0934 0 0
8:55 pm 20:55 Clear 53 11.6 50 10 90 90 Calm 30.28 1025 10 16.0934 0 0
9:15 pm 21:15 Clear 51 10.4 48 9 91 91 Calm 30.29 1026 10 16.0934 0 0
9:35 pm 21:35 Clear 51 10.6 48 9 90 90 Calm 30.29 1026 10 16.0934 0 0
9:55 pm 21:55 Clear 51 10.5 49 9.2 92 92 Calm 30.28 1025 10 16.0934 0 0
10:15 pm 22:15 Clear 49 9.5 48 8.7 95 95 Calm 30.29 1026 10 16.0934 0 0
10:35 pm 22:35 Clear 49 9.5 47 8.5 94 94 Calm 30.28 1025 10 16.0934 0 0
10:55 pm 22:55 Clear 49 9.5 47 8.4 93 93 Calm 30.28 1025 10 16.0934 0 0
11:15 pm 23:15 Clear 49 9.4 47 8.5 94 94 Calm 30.28 1025 10 16.0934 0 0
11:35 pm 23:35 Clear 48 9.1 47 8.3 95 95 Calm 30.28 1025 10 16.0934 0 0
11:55 pm 23:55 Clear 48 8.9 46 7.9 94 94 Calm 30.28 1025 10 16.0934 0 0

Powered by AerisWeather